カタログに戻る

STARLINK-6107

運用中通信VLEO
NORAD 56117·PAYLOAD·🇺🇸 United States

打ち上げ Mar 29, 2023 から Cape Canaveral Space Force Station

Loading…

次のパス (今後24時間)

TLE

最新Source: CelesTrak SupGP

元期: Sep 14, 2026, 21:57 UTC

1 56117C 23046AA  26257.91506944 -.00022119  00000+0 -80126-3 0  2578
2 56117  42.9993 158.4794 0001284 258.8905 266.6617 15.27584731    16

AllMySatでSTARLINK-6107をリアルタイム追跡

Download on the App Store